Probability
6 4 2 1 0 0 0 0 0 0 0 1 1 0 0 0 0 0 0 0 0 0 0 0 0 0 0 0 0 0 0 0 0 1 1 1 2 5 8 7 7 9 10 9 7 6 5 4 4
4 2 1 0 0 0 0 0 0 0 1 2 2 1 0 0 0 0 0 0 0 0 0 0 0 0 0 0 0 0 0 0 0 0 0 1 2 5 7 7 7 8 8 8 8 6 5 4 4
2 1 0 0 0 0 0 0 0 1 2 3 2 1 0 0 0 0 1 1 2 1 1 0 1 1 0 0 0 0 0 0 0 0 0 1 4 6 6 6 7 7 7 7 7 7 5 3 3
1 0 0 0 0 0 0 0 0 1 2 2 1 1 1 0 0 1 2 3 3 3 2 2 2 2 1 0 0 0 0 0 0 0 0 1 3 4 5 6 6 7 7 5 5 5 4 2 1
0 0 0 0 0 0 0 0 0 1 1 1 0 1 1 1 0 1 2 3 3 3 3 3 3 2 1 0 0 0 0 0 0 0 0 0 1 1 2 3 4 5 5 3 2 3 3 1 0
0 0 0 0 0 0 0 0 0 0 0 0 0 1 1 1 1 1 2 3 3 3 3 3 3 3 1 1 0 0 0 0 0 0 0 0 0 0 0 1 1 2 2 2 1 1 2 1 1
0 0 0 0 0 0 0 0 0 0 0 0 0 0 1 2 1 1 2 3 3 3 3 3 3 3 3 2 1 0 0 0 0 0 0 0 0 0 0 0 0 0 1 2 1 1 1 1 1
0 0 0 0 0 0 0 0 0 0 0 0 0 0 1 2 2 1 2 3 3 3 3 3 3 3 3 3 2 1 1 0 0 0 0 0 0 0 1 0 0 0 0 1 1 0 1 2 2
0 0 0 0 0 0 0 0 1 1 1 0 0 1 2 3 3 2 2 3 3 3 3 3 3 3 3 3 3 3 2 1 1 1 1 1 0 0 0 0 0 0 0 0 0 1 2 3 3
0 0 0 0 0 0 0 0 1 2 1 0 0 1 3 3 3 2 2 2 3 3 3 3 3 3 3 3 3 3 3 3 2 2 2 2 1 0 0 0 0 0 0 1 1 1 2 3 4
0 0 0 0 0 0 0 0 1 2 2 0 1 2 3 3 3 2 1 1 1 3 3 4 4 3 3 3 3 3 3 3 3 3 3 3 1 0 0 0 0 0 0 1 2 1 1 2 3
0 0 0 0 0 0 0 0 1 1 1 0 1 3 3 3 3 1 0 0 1 2 4 5 5 4 4 3 3 3 3 3 3 3 3 3 2 1 0 0 0 0 0 0 1 1 1 2 2
0 0 0 0 0 0 0 0 0 0 0 1 2 3 3 3 2 1 0 0 1 2 4 6 6 6 5 4 3 3 3 3 3 3 3 3 3 1 0 0 0 0 0 0 0 0 0 1 1
0 0 0 0 0 0 0 0 0 0 0 1 2 3 3 3 2 1 0 0 0 1 3 5 6 6 6 5 4 3 3 3 3 3 3 3 3 2 1 0 0 0 0 0 0 0 0 0 0
0 0 0 0 0 0 0 0 0 0 1 2 3 2 3 3 2 1 0 0 0 1 3 4 4 5 4 4 3 3 3 3 3 3 3 3 3 3 2 1 1 0 0 0 0 0 0 0 0
0 0 0 0 0 0 0 0 0 0 1 2 3 3 3 2 1 0 0 0 0 1 2 3 3 2 1 1 2 2 2 2 2 3 3 3 3 3 3 3 2 1 1 0 0 0 0 0 0
0 0 0 0 0 0 0 0 0 0 0 1 3 3 3 2 1 0 0 0 0 2 3 3 2 1 0 0 1 1 1 1 1 1 2 2 3 3 3 3 3 3 2 1 0 0 0 0 0
0 0 0 0 0 0 0 0 0 0 0 1 2 3 3 3 2 1 0 0 0 1 2 3 3 2 1 0 0 0 0 0 0 0 1 1 1 2 2 3 3 3 3 1 0 0 0 0 0
0 0 0 0 0 0 0 0 0 0 0 0 1 3 3 3 3 2 1 0 0 0 1 3 3 2 1 0 0 0 0 0 0 0 0 0 0 1 1 1 2 3 3 2 1 0 0 0 0
0 0 0 0 0 0 0 0 0 0 0 0 1 2 3 3 3 2 1 1 0 0 1 3 3 2 1 0 0 0 0 0 0 0 0 0 0 0 0 0 1 2 3 3 2 1 0 0 0
0 0 0 0 0 0 0 0 0 0 0 0 0 1 2 3 3 3 2 1 0 1 2 3 3 2 1 0 0 0 0 0 0 0 0 0 0 0 0 0 0 1 3 3 2 1 0 0 0
0 0 0 0 0 0 0 0 0 0 0 0 0 0 1 3 4 4 3 2 1 1 3 3 3 2 1 0 0 0 0 0 0 0 0 0 0 0 0 0 0 1 2 2 2 1 0 0 0
0 0 0 0 0 0 0 0 0 0 0 0 1 1 1 3 5 5 4 2 1 2 3 3 1 1 0 0 0 0 0 0 0 0 0 0 0 0 0 0 0 0 1 1 1 0 0 0 0
0 0 0 0 0 0 0 0 0 0 0 0 1 1 1 4 6 5 4 2 2 3 3 2 1 0 0 0 0 0 0 0 0 0 0 0 0 0 0 0 0 0 0 0 0 0 0 0 0
0 0 0 0 0 0 0 0 0 0 0 0 1 1 1 2 4 4 3 2 2 3 3 3 1 0 0 0 0 0 0 0 0 0 0 0 0 0 0 0 0 0 0 0 0 0 0 0 0
0 0 0 0 0 0 0 0 0 0 0 0 0 0 0 1 2 3 3 3 3 3 4 3 2 1 1 0 0 0 0 0 0 0 0 0 0 0 0 0 0 0 0 0 0 0 0 0 0
0 0 0 0 0 0 0 0 0 0 0 0 0 0 0 0 1 2 3 3 3 3 3 3 3 2 1 0 0 0 0 0 0 0 0 0 0 0 0 0 0 0 0 0 0 0 0 0 0
0 0 0 0 0 0 0 0 0 0 0 0 0 0 0 0 0 1 2 3 3 2 2 2 3 2 1 0 0 0 0 0 0 0 0 0 0 0 0 0 0 0 0 0 0 0 0 0 0
0 0 0 0 0 0 0 0 0 0 0 0 0 0 0 0 0 0 1 3 2 1 0 1 1 1 1 0 0 0 0 0 0 0 0 0 0 0 0 0 0 0 0 0 0 0 0 0 0
0 0 0 0 0 0 0 0 0 0 0 0 0 0 0 0 0 0 1 2 2 1 1 1 1 1 0 0 0 0 0 0 0 0 0 0 0 0 0 0 0 0 0 0 0 0 0 0 0
Wind_Speed
5 3 2 3 6 6 3 1 1 3 4 5 8 9 8 5 4 4 2 5 6 4 2 4 7 8 9 9 9 10 11 11 10 10 10 10 9 10 11 11 10 9 8 8 8 8 8 8 9
2 2 3 5 6 4 2 1 4 3 6 6 7 7 7 5 4 5 3 5 6 5 3 4 8 9 9 9 9 10 11 11 11 11 11 10 9 10 10 10 10 9 8 8 8 8 8 8 9
2 0 4 5 4 3 3 2 4 4 4 5 5 5 5 4 3 3 4 7 7 5 3 5 8 9 9 9 10 10 10 11 11 11 12 12 11 11 10 10 9 9 8 7 7 7 8 9 9
2 4 5 6 4 1 4 4 5 4 5 5 6 6 4 3 3 5 8 8 8 5 4 5 8 9 9 10 10 10 10 10 11 11 12 11 11 10 10 10 9 8 8 8 7 8 8 8 9
4 5 6 4 2 0 1 3 5 5 4 4 7 6 4 3 7 8 8 7 8 5 3 4 8 9 9 9 10 10 10 10 11 11 11 11 11 10 9 9 9 8 8 8 8 8 8 8 8
5 5 5 2 1 1 1 3 6 7 6 5 6 6 2 2 6 7 7 7 7 6 4 4 7 8 8 8 9 9 10 10 11 11 11 12 11 10 10 9 8 7 8 8 8 8 8 8 9
4 4 3 3 2 2 1 3 5 5 5 3 5 6 3 2 4 6 7 7 6 5 4 3 3 4 6 7 7 8 9 9 10 10 11 11 11 10 9 9 8 7 8 8 7 8 8 8 9
5 5 3 2 2 0 1 3 4 5 4 4 5 7 5 4 4 6 6 6 5 4 4 3 2 2 2 2 5 7 7 8 9 9 10 10 9 9 8 8 8 8 8 7 7 7 8 9 9
4 6 2 2 3 1 1 4 4 4 5 4 3 4 6 7 6 6 6 4 3 3 3 3 2 2 1 2 3 4 6 6 7 6 9 8 4 4 5 6 8 8 8 7 7 8 9 10 9
5 4 2 2 3 3 3 4 3 4 5 4 4 4 7 7 7 6 5 4 3 3 3 3 3 2 2 2 2 2 2 3 3 3 3 3 3 3 5 6 8 8 8 8 9 10 9 7 4
4 4 2 2 3 4 4 3 3 6 3 3 6 7 7 6 6 6 5 4 4 3 3 3 3 3 2 2 2 1 1 2 2 3 3 3 3 3 3 3 4 5 6 5 7 6 4 4 4
3 2 3 2 2 3 2 2 3 3 4 6 7 9 8 7 6 6 5 4 3 3 3 3 4 3 3 2 2 2 1 1 2 2 3 3 2 2 2 2 3 3 3 4 4 4 5 5 5
3 2 2 3 3 3 4 3 3 2 3 5 7 7 7 7 5 4 4 4 3 3 3 3 4 4 3 2 2 2 1 2 2 2 3 3 2 2 2 2 2 3 3 3 4 4 5 5 5
3 2 2 2 2 2 5 2 3 2 4 6 6 6 5 5 4 4 3 3 3 2 3 3 4 4 4 3 2 2 2 2 2 2 2 3 2 2 2 3 3 3 3 3 3 4 4 4 4
3 3 2 0 2 2 5 2 2 4 6 6 5 5 5 5 4 5 5 4 4 3 3 3 4 4 4 3 3 2 2 2 2 1 2 3 3 2 2 3 2 2 3 4 4 4 4 5 5
3 3 0 3 2 2 5 2 4 3 6 5 4 4 4 4 4 4 4 4 4 4 3 3 4 4 3 3 2 2 2 3 2 1 2 3 3 3 3 3 2 2 3 3 3 3 4 4 4
2 1 2 3 2 2 4 3 5 3 6 5 5 4 4 4 4 3 4 5 4 4 4 4 4 4 3 3 3 3 3 3 2 2 2 2 3 3 3 2 2 2 3 3 3 3 3 4 3
3 2 2 4 3 2 2 3 4 4 5 6 5 4 4 5 6 5 4 4 5 4 4 4 4 3 3 3 3 2 3 2 2 2 2 2 2 3 3 2 2 3 3 3 3 3 3 3 2
3 3 2 4 3 2 3 4 5 4 4 4 5 4 5 6 5 4 4 4 5 4 4 4 4 3 3 2 2 2 1 1 1 1 2 2 2 2 3 2 2 3 3 2 3 3 3 2 2
2 2 1 2 2 2 2 3 4 5 6 7 8 7 6 5 3 4 4 4 4 5 4 4 4 3 3 2 2 2 2 1 1 0 1 2 2 2 2 2 2 2 3 3 3 3 2 1 1
2 3 4 3 2 2 1 3 3 4 3 4 5 6 6 7 7 6 5 5 4 5 5 4 3 3 3 3 2 2 2 2 2 1 1 0 1 2 2 2 2 2 2 2 2 3 3 2 1
3 4 3 2 1 2 1 2 6 4 2 4 4 4 5 5 5 5 5 5 5 5 5 5 4 4 3 3 3 4 2 1 1 1 1 0 1 1 2 2 2 2 2 2 2 2 2 3 1
4 4 2 2 2 1 1 2 6 1 3 6 6 6 6 6 6 6 6 6 5 5 5 4 4 4 3 3 4 3 2 1 0 0 0 0 0 1 1 2 2 2 2 2 2 2 2 2 2
1 4 5 4 3 1 4 3 5 4 7 6 6 6 6 7 6 5 4 4 3 3 4 4 4 3 3 3 3 3 3 2 2 1 1 1 0 1 1 2 2 2 2 2 2 3 3 2 2
5 6 4 5 3 5 2 3 7 5 5 7 7 8 7 6 6 5 5 4 4 4 4 4 4 3 2 3 3 3 3 3 4 3 2 2 1 1 2 1 2 2 2 3 3 3 2 2 2
2 7 6 4 4 4 2 3 5 4 3 3 4 5 5 5 6 6 7 6 5 5 5 5 4 3 2 2 2 2 3 2 2 3 3 3 2 3 3 2 2 2 2 3 3 2 2 2 2
2 2 5 5 2 2 4 4 5 3 3 1 2 3 4 5 5 6 6 6 6 5 5 6 5 4 3 3 2 1 2 2 2 2 2 2 2 2 3 3 2 2 2 3 3 2 2 2 2
4 5 4 3 2 3 4 3 4 3 2 1 2 4 3 3 3 4 5 5 5 5 4 4 5 5 3 3 2 2 1 1 1 1 2 2 2 2 3 3 3 2 2 3 3 2 2 3 2
1 2 3 3 3 4 3 6 4 5 4 3 3 4 5 4 4 4 5 4 5 4 4 3 3 3 3 3 2 2 1 1 1 1 1 1 1 1 2 3 3 3 2 2 3 3 3 3 2
4 4 5 3 3 3 3 7 4 2 3 3 4 3 3 4 4 4 4 4 4 4 3 3 3 3 3 3 2 2 1 1 1 1 1 1 1 1 2 2 2 3 2 2 3 3 3 3 3
Wind_Direction
319 328 77 57 54 55 64 37 100 59 60 57 73 81 86 75 95 127 193 136 134 131 105 81 74 74 71 69 66 64 63 61 59 58 59 64 73 81 89 93 95 97 99 99 99 97 97 96 99
338 357 61 55 75 75 54 104 95 95 134 122 77 76 77 72 86 111 121 138 130 119 104 88 83 79 77 74 71 69 66 64 61 60 58 58 72 85 89 94 95 95 98 99 99 99 98 100 100
308 70 75 65 81 128 141 152 119 96 99 100 79 59 75 97 104 124 150 136 119 107 98 91 88 85 80 75 73 71 69 69 66 63 60 60 75 84 88 89 89 89 92 96 101 101 101 100 100
50 45 54 66 78 165 152 157 131 100 61 62 94 70 60 76 115 134 139 129 118 113 103 98 95 90 82 77 74 72 70 69 68 65 63 65 72 79 82 85 85 87 93 99 101 103 102 99 97
66 68 60 64 63 23 130 147 128 106 80 75 91 91 65 42 101 121 129 128 126 126 114 107 101 94 87 81 75 73 71 69 68 65 64 66 72 78 80 83 84 84 90 98 99 99 98 96 99
55 66 78 81 69 34 57 106 97 93 105 102 94 100 86 97 115 131 127 124 128 128 121 110 105 101 92 87 81 75 72 70 68 67 66 67 72 77 77 79 81 86 93 96 97 97 98 98 97
96 87 112 127 103 57 80 93 102 111 106 111 114 103 120 143 145 135 121 118 119 124 118 106 101 101 96 89 83 77 74 72 71 69 67 69 69 71 73 72 79 85 92 94 97 98 98 96 95
120 97 80 95 105 87 20 77 93 96 97 104 105 128 163 189 143 117 110 110 112 121 127 120 104 94 93 84 84 81 74 70 68 69 67 66 66 67 67 67 74 79 83 89 100 105 102 97 94
85 79 104 161 144 174 86 79 55 61 87 72 77 135 156 144 123 109 99 93 111 121 135 138 130 121 115 100 82 73 68 62 62 63 66 58 41 43 52 58 68 71 74 76 93 104 99 94 92
82 108 184 186 156 149 109 99 104 80 73 72 74 88 119 127 126 124 125 134 146 152 162 162 153 147 130 113 79 54 58 47 50 46 50 47 42 37 48 48 56 62 64 66 83 96 92 82 81
109 145 155 95 113 114 101 76 82 113 110 162 154 150 143 136 137 143 154 156 165 171 163 164 162 154 138 112 99 65 51 45 44 51 57 56 52 37 35 32 30 36 48 48 63 73 72 74 77
105 123 129 128 108 106 103 97 79 120 179 180 163 156 152 152 161 164 164 164 161 153 161 161 157 144 139 126 114 98 81 64 53 46 62 68 62 49 41 37 28 33 40 53 57 66 72 75 75
97 126 106 121 105 109 104 105 113 137 155 143 143 147 153 158 162 165 163 160 149 152 154 160 152 143 142 127 118 110 106 87 73 62 58 69 71 64 60 51 44 42 52 65 67 68 72 72 71
159 132 110 116 113 115 113 109 105 184 139 128 141 150 153 149 150 145 141 132 143 150 155 147 140 143 135 129 125 126 114 100 86 76 74 77 80 76 70 65 52 46 57 67 76 76 75 70 73
118 92 25 352 135 145 108 52 185 189 139 140 158 160 151 152 157 162 165 155 156 149 141 142 141 128 127 131 135 122 114 109 100 88 81 84 82 82 77 74 65 51 64 71 72 68 71 76 73
66 83 331 266 170 160 117 210 243 198 143 157 167 169 165 167 174 183 170 157 155 142 130 120 124 120 120 120 117 108 104 97 91 79 76 81 85 89 84 79 70 67 72 74 80 73 74 69 68
41 140 215 262 218 155 134 211 245 201 157 172 185 187 183 180 181 193 179 159 154 144 132 116 109 111 113 103 92 90 92 86 81 72 67 71 79 88 96 89 81 82 79 74 88 74 84 83 75
214 200 211 228 239 149 158 215 234 214 168 177 192 194 194 192 198 188 179 155 145 136 128 121 114 105 99 96 87 73 68 72 73 76 77 82 74 78 89 91 82 88 86 76 83 86 75 87 89
173 169 209 237 235 157 189 219 226 203 175 185 193 193 200 213 210 178 166 147 134 129 128 129 124 122 107 99 108 109 99 79 73 90 95 95 89 84 88 94 93 96 102 109 108 101 89 72 80
149 165 231 273 266 178 194 246 241 209 196 189 187 194 201 208 197 173 163 151 150 149 148 145 141 138 126 119 128 139 142 129 129 64 91 112 110 103 107 111 118 117 111 99 98 104 100 86 84
236 194 204 226 326 16 80 321 292 258 217 194 187 192 196 195 186 184 172 167 164 163 163 162 158 144 131 116 95 77 58 45 33 18 357 162 120 120 126 136 134 126 123 133 133 124 120 124 52
240 227 201 193 118 268 155 268 282 252 239 217 209 195 200 198 184 180 177 172 180 183 168 161 155 149 141 126 120 121 125 150 219 221 241 254 147 153 146 136 138 134 132 138 154 138 133 132 136
221 226 207 206 171 257 271 190 282 254 241 237 222 206 201 196 181 183 183 180 184 174 163 165 155 153 155 148 143 139 142 177 180 140 135 215 285 190 166 143 141 142 145 149 146 127 126 131 142
139 47 29 41 78 271 233 185 273 228 216 222 218 210 196 191 185 182 178 165 171 160 155 158 154 161 159 154 155 155 160 161 149 165 194 228 270 282 234 157 145 147 150 152 152 147 138 135 127
73 79 28 359 4 258 237 184 247 244 226 205 200 202 192 181 174 173 168 167 169 163 162 155 150 156 160 160 169 174 177 173 182 192 197 193 199 217 232 180 161 157 160 157 146 134 140 139 131
166 138 156 199 228 277 306 226 253 270 246 201 185 182 179 177 176 179 179 174 171 164 158 151 151 150 148 153 175 177 175 182 195 198 195 196 201 207 200 190 171 169 163 154 144 133 148 136 137
141 179 174 154 207 261 275 283 302 353 17 74 150 157 179 190 189 184 177 170 166 164 163 164 161 157 158 152 146 159 174 184 202 212 206 208 208 199 188 184 172 178 168 159 150 148 156 140 139
149 149 91 118 172 252 280 263 252 280 295 305 187 183 187 183 187 181 174 174 169 169 166 163 161 165 166 156 165 168 188 203 194 179 193 204 206 201 178 178 172 178 178 162 157 153 151 136 144
115 116 120 137 167 173 249 267 229 215 222 204 201 198 187 183 185 185 178 175 160 153 151 155 165 162 162 166 175 173 201 207 181 170 186 181 172 169 168 173 170 178 176 171 164 166 156 151 153
175 175 147 161 234 186 199 265 273 225 231 194 194 197 192 189 187 183 172 160 156 157 164 172 177 177 182 180 173 178 186 161 155 201 203 176 162 165 170 161 161 170 169 170 171 176 165 161 164